DLH069 LBSF-LIRF

Flight info

Callsign DLH069
Flight time N/A
Altitude 39000
Route NAPET3T/27 NAPET T214 SIN DCT DOBAR DCT DIRES DCT TROTA DCT TOPNO DCT DOGUS DCT EKTOL DCT AMSOR DCT IPKAM DCT TEA DCT SIPRO Z803 LAT
Aircraft A35K/H-SDE2E3GHIJ3J4J5LM1ORWXY/LB1D1

Departure

Time 2026-05-04 19:34
Airport Sofia Airport (LBSF)

Arrival

Time N/A
Airport Rome–Fiumicino Leonardo da Vinci International Airport (LIRF)
Time Latitude Longitude Altitude Speed Heading
2026-05-04 19:08 42.69081 23.41482 1754 ft 0 kts 256°
2026-05-04 19:22 42.69082 23.41486 1754 ft 3 kts 256°
2026-05-04 19:22 42.69086 23.41511 1744 ft 3 kts 252°
2026-05-04 19:22 42.69095 23.41535 1740 ft 3 kts 216°
2026-05-04 19:22 42.69113 23.41547 1744 ft 3 kts 181°
2026-05-04 19:23 42.69118 23.41548 1744 ft 0 kts 171°
2026-05-04 19:26 42.69117 23.41548 1744 ft 1 kts 171°
2026-05-04 19:26 42.69096 23.41558 1740 ft 5 kts 154°
2026-05-04 19:27 42.69083 23.41602 1747 ft 6 kts 95°
2026-05-04 19:27 42.69089 23.41676 1750 ft 10 kts 77°
2026-05-04 19:27 42.69109 23.41776 1744 ft 13 kts 75°
2026-05-04 19:27 42.69135 23.41902 1747 ft 15 kts 73°
2026-05-04 19:28 42.69168 23.42050 1748 ft 18 kts 73°
2026-05-04 19:28 42.69205 23.42218 1748 ft 20 kts 73°
2026-05-04 19:28 42.69258 23.42377 1745 ft 17 kts 46°
2026-05-04 19:28 42.69335 23.42422 1746 ft 0 kts
2026-05-04 19:29 42.69336 23.42422 1750 ft 1 kts
2026-05-04 19:29 42.69356 23.42425 1748 ft 6 kts
2026-05-04 19:29 42.69403 23.42487 1745 ft 14 kts 76°
2026-05-04 19:29 42.69402 23.42664 1748 ft 24 kts 93°
2026-05-04 19:30 42.69387 23.42925 1752 ft 32 kts 92°
2026-05-04 19:30 42.69369 23.43262 1757 ft 39 kts 95°
2026-05-04 19:30 42.69347 23.43620 1749 ft 30 kts 94°
2026-05-04 19:30 42.69335 23.43822 1754 ft 18 kts 94°
2026-05-04 19:31 42.69378 23.43942 1766 ft 10 kts 20°
2026-05-04 19:31 42.69392 23.43946 1766 ft 0 kts 11°
2026-05-04 19:32 42.69397 23.43947 1766 ft 3 kts 10°
2026-05-04 19:32 42.69436 23.43954 1765 ft 9 kts
2026-05-04 19:32 42.69508 23.43933 1751 ft 9 kts 313°
2026-05-04 19:33 42.69515 23.43888 1753 ft 0 kts 273°
2026-05-04 19:33 42.69515 23.43878 1752 ft 8 kts 274°
2026-05-04 19:33 42.69537 23.43591 1750 ft 54 kts 276°
2026-05-04 19:33 42.69579 23.42817 1756 ft 111 kts 274°
2026-05-04 19:34 42.69656 23.41532 1754 ft 160 kts 275°
2026-05-04 19:34 42.69777 23.39945 2226 ft 164 kts 275°
2026-05-04 19:34 42.70124 23.38457 2739 ft 174 kts 303°
2026-05-04 19:34 42.70907 23.37083 2998 ft 194 kts 308°
2026-05-04 19:35 42.71833 23.35574 3181 ft 219 kts 307°
2026-05-04 19:35 42.72816 23.33876 3421 ft 243 kts 306°
2026-05-04 19:35 42.73874 23.31972 3846 ft 258 kts 306°
2026-05-04 19:35 42.74941 23.30005 4659 ft 257 kts 308°
2026-05-04 19:36 42.75992 23.28020 5380 ft 262 kts 305°
2026-05-04 19:36 42.76680 23.25695 6039 ft 271 kts 280°
2026-05-04 19:36 42.76801 23.23103 6698 ft 275 kts 273°
2026-05-04 19:36 42.76818 23.20473 7055 ft 278 kts 273°
2026-05-04 19:37 42.76834 23.17859 7106 ft 281 kts 273°
2026-05-04 19:37 42.76851 23.15182 7105 ft 282 kts 272°
2026-05-04 19:37 42.76553 23.12541 7103 ft 286 kts 252°
2026-05-04 19:37 42.75473 23.10279 7107 ft 288 kts 223°
2026-05-04 19:38 42.73741 23.08933 7111 ft 289 kts 195°
2026-05-04 19:38 42.71761 23.08422 7103 ft 290 kts 187°
2026-05-04 19:38 42.69769 23.08087 7106 ft 291 kts 186°
2026-05-04 19:38 42.67756 23.07748 7119 ft 291 kts 186°
2026-05-04 19:39 42.65736 23.07391 7445 ft 294 kts 187°
2026-05-04 19:39 42.63697 23.07023 8176 ft 296 kts 186°
2026-05-04 19:39 42.61646 23.06644 9012 ft 299 kts 186°
2026-05-04 19:39 42.59591 23.06264 9778 ft 304 kts 185°
2026-05-04 19:40 42.57472 23.05870 10446 ft 313 kts 185°
2026-05-04 19:40 42.55241 23.05463 10795 ft 333 kts 185°
2026-05-04 19:40 42.52865 23.05024 11060 ft 353 kts 185°
2026-05-04 19:40 42.50358 23.04564 11359 ft 372 kts 185°
2026-05-04 19:41 42.47768 23.04082 11668 ft 388 kts 185°
2026-05-04 19:41 42.45057 23.03576 12244 ft 396 kts 186°
2026-05-04 19:41 42.42313 23.03062 12946 ft 399 kts 185°
2026-05-04 19:41 42.39571 23.02550 13685 ft 403 kts 186°
2026-05-04 19:42 42.36773 23.02030 14312 ft 407 kts 186°
2026-05-04 19:42 42.33955 23.01466 14948 ft 411 kts 189°
2026-05-04 19:42 42.31197 23.00386 15586 ft 416 kts 201°
2026-05-04 19:42 42.28674 22.98451 16228 ft 419 kts 217°
2026-05-04 19:43 42.26569 22.95721 16892 ft 421 kts 231°
2026-05-04 19:43 42.24810 22.92555 17557 ft 423 kts 236°
2026-05-04 19:43 42.23183 22.89231 18192 ft 425 kts 239°
2026-05-04 19:43 42.21632 22.85877 18765 ft 427 kts 239°
2026-05-04 19:44 42.20065 22.82441 19287 ft 431 kts 239°
2026-05-04 19:44 42.18472 22.78979 19821 ft 435 kts 239°
2026-05-04 19:44 42.16855 22.75516 20447 ft 435 kts 238°
2026-05-04 19:44 42.15244 22.72114 21105 ft 437 kts 238°
2026-05-04 19:45 42.13584 22.68642 21660 ft 441 kts 238°
2026-05-04 19:45 42.11898 22.65138 22198 ft 446 kts 238°
2026-05-04 19:45 42.10200 22.61616 22672 ft 451 kts 237°
2026-05-04 19:45 42.08487 22.58063 23263 ft 454 kts 238°
2026-05-04 19:46 42.06777 22.54517 23760 ft 458 kts 237°
2026-05-04 19:46 42.05037 22.50916 24296 ft 459 kts 237°
2026-05-04 19:46 42.03289 22.47300 24833 ft 461 kts 237°
2026-05-04 19:46 42.01538 22.43685 25418 ft 460 kts 237°
2026-05-04 19:47 41.99789 22.40075 26027 ft 460 kts 237°
2026-05-04 19:47 41.98148 22.36363 26409 ft 464 kts 243°
2026-05-04 19:47 41.96716 22.32444 26864 ft 467 kts 245°
2026-05-04 19:47 41.95479 22.28447 27361 ft 469 kts 248°
2026-05-04 19:48 41.94293 22.24345 27787 ft 473 kts 249°
2026-05-04 19:48 41.93132 22.20184 28265 ft 474 kts 249°
2026-05-04 19:48 41.91988 22.16006 28685 ft 477 kts 249°
2026-05-04 19:48 41.90858 22.11860 29030 ft 480 kts 250°
2026-05-04 19:49 41.89703 22.07617 29266 ft 486 kts 250°
2026-05-04 19:49 41.88533 22.03336 29640 ft 489 kts 250°
2026-05-04 19:49 41.87356 21.99045 30053 ft 490 kts 250°
2026-05-04 19:49 41.86173 21.94758 30536 ft 489 kts 249°
2026-05-04 19:50 41.84980 21.90483 30902 ft 489 kts 251°
2026-05-04 19:50 41.83792 21.86201 31274 ft 490 kts 251°
2026-05-04 19:50 41.82603 21.81908 31660 ft 490 kts 251°
2026-05-04 19:50 41.81428 21.77677 31958 ft 491 kts 253°
2026-05-04 19:51 41.80226 21.73353 32124 ft 496 kts 253°
2026-05-04 19:51 41.79021 21.69021 32519 ft 494 kts 253°
2026-05-04 19:51 41.77818 21.64713 32974 ft 492 kts 253°
2026-05-04 19:51 41.76909 21.61465 33294 ft 491 kts 253°
2026-05-04 19:52 41.75987 21.58177 33596 ft 490 kts 253°
2026-05-04 19:52 41.74799 21.53944 33976 ft 489 kts 253°
2026-05-04 19:52 41.73603 21.49692 34338 ft 487 kts 253°
2026-05-04 19:52 41.72406 21.45439 34650 ft 486 kts 253°
2026-05-04 19:53 41.71208 21.41195 34942 ft 485 kts 253°
2026-05-04 19:53 41.70031 21.37032 35218 ft 484 kts 253°
2026-05-04 19:53 41.68837 21.32812 35522 ft 483 kts 253°
2026-05-04 19:53 41.67646 21.28611 35803 ft 482 kts 253°
2026-05-04 19:54 41.66454 21.24409 36091 ft 481 kts 253°
2026-05-04 19:54 41.65264 21.20225 36368 ft 480 kts 253°
2026-05-04 19:54 41.64091 21.16106 36612 ft 480 kts 253°
2026-05-04 19:54 41.62903 21.11945 36899 ft 477 kts 253°
2026-05-04 19:55 41.61722 21.07816 37307 ft 472 kts 253°
2026-05-04 19:55 41.60543 21.03701 37600 ft 471 kts 253°
2026-05-04 19:55 41.59372 20.99616 37802 ft 470 kts 253°
2026-05-04 19:55 41.58215 20.95585 37984 ft 470 kts 253°
2026-05-04 19:56 41.57042 20.91505 38169 ft 469 kts 253°
2026-05-04 19:56 41.55872 20.87439 38374 ft 468 kts 253°
2026-05-04 19:56 41.54700 20.83378 38552 ft 467 kts 253°
2026-05-04 19:56 41.53528 20.79323 38717 ft 467 kts 252°
2026-05-04 19:57 41.52366 20.75325 38837 ft 467 kts 252°
2026-05-04 19:57 41.50016 20.67226 38982 ft 468 kts 253°
2026-05-04 19:58 41.47668 20.59147 39141 ft 469 kts 253°
2026-05-04 19:58 41.46485 20.55089 39251 ft 468 kts 253°
2026-05-04 19:58 41.45301 20.51034 39341 ft 468 kts 253°
2026-05-04 19:59 41.42927 20.42927 39461 ft 469 kts 252°
2026-05-04 19:59 41.41738 20.38876 39577 ft 468 kts 252°
2026-05-04 19:59 41.40562 20.34874 39641 ft 469 kts 252°
2026-05-04 20:00 41.38173 20.26774 39819 ft 468 kts 252°
2026-05-04 20:00 41.35788 20.18707 39964 ft 468 kts 252°
2026-05-04 20:01 41.33406 20.10674 40053 ft 468 kts 252°
2026-05-04 20:01 41.30995 20.02562 40048 ft 472 kts 252°
2026-05-04 20:02 41.28579 19.94463 40127 ft 474 kts 252°
2026-05-04 20:02 41.26131 19.86288 40136 ft 474 kts 252°
2026-05-04 20:03 41.23700 19.78193 40141 ft 473 kts 252°
2026-05-04 20:03 41.21247 19.70053 40146 ft 472 kts 252°
2026-05-04 20:04 41.18816 19.62004 40131 ft 472 kts 252°
2026-05-04 20:04 41.16359 19.53891 40132 ft 472 kts 252°
2026-05-04 20:05 41.13901 19.45807 40121 ft 472 kts 252°
2026-05-04 20:05 41.11454 19.37782 40135 ft 471 kts 252°
2026-05-04 20:06 41.08992 19.29729 40136 ft 471 kts 252°
2026-05-04 20:06 41.06692 19.21605 40136 ft 467 kts 259°
2026-05-04 20:07 41.05765 19.13231 40135 ft 459 kts 271°
2026-05-04 20:07 41.05701 19.04770 40137 ft 458 kts 274°
2026-05-04 20:08 41.05823 18.96330 40143 ft 457 kts 274°
2026-05-04 20:08 41.05908 18.87939 40143 ft 457 kts 274°
2026-05-04 20:09 41.05943 18.79505 40138 ft 458 kts 274°
2026-05-04 20:09 41.05954 18.71116 40136 ft 456 kts 274°
2026-05-04 20:10 41.05960 18.62710 40138 ft 455 kts 274°
2026-05-04 20:10 41.05962 18.54313 40135 ft 455 kts 274°
2026-05-04 20:11 41.05959 18.45909 40136 ft 455 kts 274°
2026-05-04 20:11 41.05950 18.37561 40135 ft 454 kts 274°
2026-05-04 20:12 41.05935 18.29198 40135 ft 453 kts 274°
2026-05-04 20:12 41.05914 18.20838 40135 ft 452 kts 274°
2026-05-04 20:13 41.05887 18.12539 40134 ft 453 kts 274°
2026-05-04 20:13 41.05845 18.04221 40131 ft 453 kts 272°
2026-05-04 20:14 41.05497 17.95838 40132 ft 455 kts 270°
2026-05-04 20:14 41.05016 17.87478 40124 ft 455 kts 270°
2026-05-04 20:15 41.04569 17.79145 40126 ft 454 kts 270°
2026-05-04 20:15 41.04152 17.70783 40118 ft 454 kts 270°
2026-05-04 20:16 41.03743 17.62502 40110 ft 452 kts 270°
2026-05-04 20:16 41.03328 17.54196 40114 ft 451 kts 270°
2026-05-04 20:17 41.02906 17.45897 40116 ft 451 kts 270°
2026-05-04 20:17 41.02480 17.37649 40117 ft 451 kts 270°
2026-05-04 20:18 41.02045 17.29362 40121 ft 450 kts 270°
2026-05-04 20:18 41.01605 17.21091 40123 ft 449 kts 270°
2026-05-04 20:19 41.01160 17.12829 40121 ft 450 kts 270°
2026-05-04 20:19 41.00711 17.04613 40104 ft 450 kts 270°
2026-05-04 20:20 41.00332 16.97743 40124 ft 448 kts 270°
2026-05-04 20:20 40.99795 16.88164 40118 ft 448 kts 270°
2026-05-04 20:21 40.99405 16.81292 40101 ft 448 kts 270°
2026-05-04 20:21 40.98697 16.68965 40113 ft 448 kts 269°
2026-05-04 20:22 40.98219 16.60803 40111 ft 445 kts 269°
2026-05-04 20:22 40.97734 16.52624 40117 ft 444 kts 269°
2026-05-04 20:23 40.97250 16.44525 40119 ft 443 kts 269°
2026-05-04 20:23 40.96757 16.36375 40119 ft 443 kts 269°
2026-05-04 20:24 40.96262 16.28279 40117 ft 444 kts 269°
2026-05-04 20:24 40.95755 16.20099 40124 ft 444 kts 269°
2026-05-04 20:25 40.95433 16.11972 40125 ft 441 kts 276°
2026-05-04 20:25 40.96302 16.04048 40124 ft 437 kts 284°
2026-05-04 20:26 40.97600 15.96191 40124 ft 437 kts 285°
2026-05-04 20:26 40.98964 15.88317 40129 ft 438 kts 285°
2026-05-04 20:27 41.00302 15.80493 40128 ft 438 kts 284°
2026-05-04 20:27 41.01623 15.72641 40129 ft 438 kts 284°
2026-05-04 20:28 41.02946 15.64741 40129 ft 438 kts 284°
2026-05-04 20:28 41.04261 15.56842 40133 ft 439 kts 284°
2026-05-04 20:29 41.05566 15.48956 40134 ft 440 kts 284°
2026-05-04 20:29 41.06869 15.41058 40135 ft 440 kts 284°
2026-05-04 20:30 41.08169 15.33156 40139 ft 440 kts 284°
2026-05-04 20:30 41.09468 15.25217 40134 ft 440 kts 284°
2026-05-04 20:31 41.10760 15.17292 40140 ft 442 kts 284°
2026-05-04 20:31 41.12072 15.09294 40141 ft 442 kts 284°
2026-05-04 20:32 41.13374 15.01364 40147 ft 442 kts 284°
2026-05-04 20:32 41.14681 14.93358 40146 ft 442 kts 284°
2026-05-04 20:33 41.15973 14.85408 40147 ft 444 kts 284°
2026-05-04 20:33 41.17243 14.77369 40147 ft 445 kts 283°
2026-05-04 20:34 41.18475 14.69361 40147 ft 445 kts 283°
2026-05-04 20:34 41.19721 14.61299 40155 ft 445 kts 283°
2026-05-04 20:35 41.20986 14.53267 39699 ft 441 kts 283°
2026-05-04 20:35 41.21616 14.49269 38945 ft 443 kts 283°
2026-05-04 20:35 41.22244 14.45279 38076 ft 446 kts 283°
2026-05-04 20:36 41.22878 14.41234 37328 ft 444 kts 283°
2026-05-04 20:36 41.23502 14.37224 36643 ft 442 kts 283°
2026-05-04 20:36 41.24123 14.33228 35958 ft 440 kts 283°
2026-05-04 20:36 41.24735 14.29283 35312 ft 438 kts 283°
2026-05-04 20:37 41.25358 14.25272 34629 ft 437 kts 283°
2026-05-04 20:37 41.25960 14.21375 33946 ft 435 kts 283°
2026-05-04 20:37 41.26570 14.17423 33104 ft 436 kts 283°
2026-05-04 20:37 41.27176 14.13482 32362 ft 435 kts 283°
2026-05-04 20:38 41.27781 14.09535 31637 ft 434 kts 283°
2026-05-04 20:38 41.28381 14.05606 30895 ft 433 kts 283°
2026-05-04 20:38 41.28999 14.01667 30133 ft 433 kts 284°
2026-05-04 20:38 41.29889 13.97903 29343 ft 431 kts 292°
2026-05-04 20:39 41.31222 13.94352 28783 ft 426 kts 301°
2026-05-04 20:39 41.32795 13.91017 28253 ft 422 kts 302°
2026-05-04 20:39 41.34401 13.87802 27730 ft 421 kts 303°
2026-05-04 20:39 41.36060 13.84578 27208 ft 421 kts 303°
2026-05-04 20:40 41.37731 13.81365 26664 ft 422 kts 303°
2026-05-04 20:40 41.39404 13.78150 26118 ft 421 kts 303°
2026-05-04 20:40 41.41066 13.74940 25582 ft 420 kts 303°
2026-05-04 20:40 41.42695 13.71768 25065 ft 419 kts 302°
2026-05-04 20:41 41.44083 13.68358 24530 ft 417 kts 292°
2026-05-04 20:41 41.44942 13.64670 24016 ft 415 kts 282°
2026-05-04 20:41 41.45500 13.60877 23432 ft 415 kts 280°
2026-05-04 20:41 41.45996 13.57099 22884 ft 413 kts 279°
2026-05-04 20:42 41.46479 13.53329 22363 ft 410 kts 279°
2026-05-04 20:42 41.46956 13.49580 21736 ft 408 kts 279°
2026-05-04 20:42 41.47422 13.45910 21186 ft 404 kts 279°
2026-05-04 20:42 41.47885 13.42239 20684 ft 399 kts 279°
2026-05-04 20:43 41.48343 13.38595 20188 ft 395 kts 279°
2026-05-04 20:43 41.48795 13.34989 19674 ft 391 kts 279°
2026-05-04 20:43 41.49241 13.31418 19188 ft 388 kts 279°
2026-05-04 20:43 41.49682 13.27881 18687 ft 385 kts 279°
2026-05-04 20:44 41.50112 13.24421 18236 ft 380 kts 279°
2026-05-04 20:44 41.50536 13.20999 18092 ft 364 kts 279°
2026-05-04 20:44 41.50943 13.17712 17840 ft 353 kts 279°
2026-05-04 20:44 41.51338 13.14512 17530 ft 344 kts 278°
2026-05-04 20:45 41.51723 13.11398 17233 ft 335 kts 278°
2026-05-04 20:45 41.52091 13.08402 16934 ft 328 kts 278°
2026-05-04 20:45 41.52456 13.05423 16636 ft 320 kts 278°
2026-05-04 20:45 41.52810 13.02522 16339 ft 312 kts 278°
2026-05-04 20:46 41.53157 12.99680 16045 ft 306 kts 278°
2026-05-04 20:46 41.53491 12.96935 15752 ft 301 kts 278°
2026-05-04 20:46 41.53852 12.94183 15462 ft 300 kts 282°
2026-05-04 20:46 41.54615 12.91571 15159 ft 302 kts 300°
2026-05-04 20:47 41.55945 12.89447 14887 ft 303 kts 314°
2026-05-04 20:47 41.57485 12.87517 14596 ft 303 kts 315°
2026-05-04 20:47 41.59039 12.85614 14316 ft 302 kts 315°
2026-05-04 20:47 41.60586 12.83708 14042 ft 301 kts 315°
2026-05-04 20:48 41.62123 12.81803 13720 ft 300 kts 315°
2026-05-04 20:48 41.63763 12.80009 13418 ft 316 kts 323°
2026-05-04 20:48 41.65700 12.78275 13068 ft 355 kts 325°
2026-05-04 20:48 41.67868 12.76434 12725 ft 381 kts 326°
2026-05-04 20:49 41.70115 12.74562 12431 ft 387 kts 326°
2026-05-04 20:49 41.72411 12.72661 12125 ft 387 kts 326°
2026-05-04 20:49 41.74697 12.70769 11830 ft 386 kts 326°
2026-05-04 20:49 41.76979 12.68880 11533 ft 385 kts 326°
2026-05-04 20:50 41.79256 12.66994 11243 ft 384 kts 326°
2026-05-04 20:50 41.81536 12.65103 10937 ft 383 kts 326°
2026-05-04 20:50 41.83808 12.63218 10656 ft 382 kts 326°
2026-05-04 20:50 41.86039 12.61365 10409 ft 382 kts 326°
2026-05-04 20:51 41.88301 12.59485 10134 ft 382 kts 326°
2026-05-04 20:51 41.90559 12.57607 9801 ft 378 kts 326°
2026-05-04 20:51 41.92764 12.55773 9501 ft 365 kts 326°
2026-05-04 20:51 41.94880 12.54012 9205 ft 351 kts 326°
2026-05-04 20:52 41.96923 12.52310 8903 ft 340 kts 326°
2026-05-04 20:52 41.98899 12.50660 8619 ft 329 kts 326°
2026-05-04 20:52 42.00817 12.49058 8324 ft 319 kts 326°
2026-05-04 20:52 42.02654 12.47523 8090 ft 309 kts 326°
2026-05-04 20:53 42.04455 12.46017 7775 ft 301 kts 326°
2026-05-04 20:53 42.06220 12.44538 7419 ft 297 kts 326°
2026-05-04 20:53 42.07962 12.43077 7094 ft 292 kts 326°
2026-05-04 20:53 42.09654 12.41661 6987 ft 278 kts 326°
2026-05-04 20:54 42.11246 12.40329 6989 ft 261 kts 325°
2026-05-04 20:54 42.12749 12.39069 6984 ft 255 kts 325°
2026-05-04 20:54 42.14252 12.37804 6975 ft 254 kts 325°
2026-05-04 20:54 42.15740 12.36500 6971 ft 256 kts 319°
2026-05-04 20:55 42.17002 12.34687 6964 ft 273 kts 298°
2026-05-04 20:55 42.17554 12.32304 6853 ft 267 kts 268°
2026-05-04 20:55 42.17269 12.29890 6564 ft 256 kts 251°
2026-05-04 20:55 42.16778 12.27633 6411 ft 245 kts 250°
2026-05-04 20:56 42.16308 12.25473 6297 ft 234 kts 251°
2026-05-04 20:56 42.15868 12.23397 6058 ft 228 kts 251°
2026-05-04 20:56 42.15350 12.21425 5713 ft 224 kts 240°
2026-05-04 20:56 42.14434 12.19760 5327 ft 220 kts 219°
2026-05-04 20:57 42.13147 12.18701 5022 ft 216 kts 198°
2026-05-04 20:57 42.11709 12.18164 4698 ft 213 kts 192°
2026-05-04 20:57 42.10266 12.17748 4326 ft 212 kts 191°
2026-05-04 20:57 42.08828 12.17337 4069 ft 208 kts 191°
2026-05-04 20:58 42.07477 12.17044 4162 ft 188 kts 183°
2026-05-04 20:58 42.06200 12.17166 4136 ft 185 kts 170°
2026-05-04 20:58 42.04950 12.17593 4055 ft 186 kts 164°
2026-05-04 20:58 42.03712 12.18108 4007 ft 185 kts 163°
2026-05-04 20:59 42.02535 12.18605 3846 ft 169 kts 164°
2026-05-04 20:59 42.01439 12.19065 3554 ft 162 kts 164°
2026-05-04 20:59 42.00405 12.19500 3307 ft 153 kts 164°
2026-05-04 20:59 41.99410 12.19919 3093 ft 149 kts 164°
2026-05-04 21:00 41.98417 12.20337 2882 ft 147 kts 164°
2026-05-04 21:00 41.97465 12.20739 2696 ft 144 kts 164°
2026-05-04 21:00 41.96505 12.21143 2506 ft 144 kts 164°
2026-05-04 21:00 41.95544 12.21547 2303 ft 144 kts 164°
2026-05-04 21:01 41.94561 12.21961 2117 ft 152 kts 164°
2026-05-04 21:01 41.93555 12.22384 1884 ft 154 kts 164°
2026-05-04 21:01 41.92529 12.22816 1686 ft 154 kts 163°
2026-05-04 21:01 41.91527 12.23238 1464 ft 146 kts 163°
2026-05-04 21:02 41.90567 12.23643 1285 ft 143 kts 162°